Location: Narrabri
(30.3170°S, 149.7830°E)
Time: 18:58:29
(UTC+11:00)

Envisat - Pass Details

Date: 15 October 2017
Orbit: 764 x 766 km, 98.2° (Epoch: 22 October)

Event Time Altitude Azimuth Distance (km) Brightness Sun altitude
Rises 22:32:32 0° 187° (S) 3,263 6.8 -39.4°
Reaches altitude 10° 22:35:23 10° 202° (SSW) 2,329 6.1 -39.9°
Enters shadow 22:37:56 19° 230° (SW) 1,774 5.4 -40.2°
